SES-4 1 38087U 12007A 21065.69694291 -.00000184 00000-0 00000+0 0 9999 2 38087 0.0108 111.2198 0002325 228.9483 53.3485 1.00272520 33157 BREEZE-M R/B 1 38088U 12007B 21065.50632002 -.00000063 00000-0 00000-0 0 9999 2 38088 24.7218 116.2981 6213792 101.3038 358.5361 2.22072168 73480 BREEZE-M DEB [TANK] 1 38089U 12007C 21065.74258386 .00001850 00000-0 41711-3 0 9996 2 38089 49.5814 218.5229 5034081 164.1427 220.5858 5.53546846181338